Location: Revò
(46.3917°N, 11.0587°E)
Time: 00:39:42
(UTC+02:00)

Tiangong - Visible Passes

Search period start: 21 May 2026 00:00
Search period end: 31 May 2026 00:00
Orbit: 381 x 391 km, 41.5° (Epoch: 20 May)

Date Brightness Start Highest point End Pass type
(mag) Time Alt. Az. Time Alt. Az. Time Alt. Az.
21 May -0.5 21:23:46 10° SSW 21:26:01 18° SSE 21:28:18 10° ESE visible
21 May -0.7 22:59:30 10° WSW 23:01:16 25° SW 23:01:16 25° SW visible
22 May -1.1 22:00:19 10° SW 22:03:09 29° S 22:04:59 17° ESE visible
22 May 0.4 23:36:45 10° WSW 23:37:13 13° WSW 23:37:13 13° WSW visible
23 May -1.4 22:37:24 10° WSW 22:40:20 33° S 22:40:42 32° SSE visible
24 May -1.2 21:38:06 10° WSW 21:41:01 33° S 21:43:56 10° ESE visible
24 May -0.3 23:14:45 10° WSW 23:16:16 20° SW 23:16:16 20° SW visible
25 May -1.1 22:15:17 10° WSW 22:18:09 30° S 22:19:29 22° SE visible
26 May -0.4 22:52:47 10° WSW 22:54:53 19° SSW 22:54:53 19° SSW visible
27 May -0.8 21:53:10 10° WSW 21:55:52 25° SSW 21:58:00 13° SE visible
28 May 0.0 22:31:00 10° WSW 22:32:47 14° SSW 22:33:19 14° SSW visible
